Content
SEND FEEDBACK

Daily
Averages
Monthly
Summary
United States of America

MILAN, MICHIGAN


Home > North America > United States > Michigan
Elevation: 660 feet     Latitude: 42 05N     Longitude: 083 35W

WEATHER
 
SELECT A DAY
Number of Records: 207,680;   Date Range: 1/1/95 - 12/26/14
 
SHARE

PRINT THIS DATA

[ ← Previous Day ]
WEATHER ALMANAC - MAY 12, 2013
[ Next Day → ]
[ °C ]   °F
Weather ElementAverageHighLow
Temperature43.8 °F51.1 °F (2:53 pm)37 °F (10:53 pm)
Dewpoint27.9 °F33.1 °F (1:53 am)23 °F (7:53 pm)
Humidity54.9 %77 % (1:53 am)38 % (3:53 pm)
Barometer29.97 in30.10 in (10:53 pm)29.88 in (4:53 am)
Wind Speed16.4 mph26.5 mph (4:53 pm)
Wind Gust36.8 mph (9:53 am)
Weather ElementAverage
Visibility10 mi
Wind DirectionWNW (282.4 °)

Weather ElementTotal
Precipitation---
Heating Degree Days21 (Base 65)
Averaged from 25 records on May 12, 2013
WEATHER CONDITIONS BREAKOUT
WIND DIRECTION BREAKOUT
WEATHER BY HOUR - MAY 12, 2013
[ °C ]   °F
Local TimeTemperatureDewpointHumidityBarometerVisibilityWind DirectionWind SpeedGust SpeedPrecipitationEventsConditions
1:53 AM39.9 °F33.1 °F77 %29.92 in10.0 miWSW (250°)9.2 mphClear
2:53 AM39.0 °F32.0 °F76 %29.90 in10.0 miSW (230°)10.4 mphClear
3:53 AM39.9 °F32.0 °F73 %29.90 in10.0 miWest (260°)12.7 mphClear
4:53 AM39.0 °F32.0 °F76 %29.88 in10.0 miWSW (240°)9.2 mphClear
5:53 AM39.9 °F30.9 °F70 %29.89 in10.0 miWest (260°)15.0 mphPartly Cloudy
6:42 AM41.0 °F30.2 °F65 %29.89 in10.0 miWest (280°)13.8 mphMostly Cloudy
6:53 AM41.0 °F30.0 °F65 %29.90 in10.0 miWest (280°)19.6 mph23.0 mphOvercast
7:31 AM41.0 °F28.4 °F61 %29.90 in10.0 miWNW (300°)20.7 mph29.9 mphMostly Cloudy
7:53 AM43.0 °F28.0 °F56 %29.91 in10.0 miWNW (290°)20.7 mph26.5 mphMostly Cloudy
8:53 AM43.0 °F28.0 °F56 %29.93 in10.0 miNW (310°)23.0 mph28.8 mphOvercast
9:53 AM44.1 °F27.0 °F51 %29.95 in10.0 miWNW (300°)24.2 mph36.8 mphOvercast
10:53 AM46.9 °F27.0 °F46 %29.95 in10.0 miWest (280°)24.2 mph29.9 mphMostly Cloudy
11:53 AM48.0 °F28.0 °F46 %29.96 in10.0 miWNW (290°)16.1 mph28.8 mphOvercast
12:53 PM48.9 °F28.0 °F44 %29.96 in10.0 miWest (270°)18.4 mph25.3 mphOvercast
1:53 PM50.0 °F27.0 °F41 %29.97 in10.0 miWNW (290°)18.4 mph28.8 mphMostly Cloudy
2:53 PM51.1 °F27.0 °F39 %29.97 in10.0 miWNW (300°)19.6 mph25.3 mphOvercast
3:53 PM51.1 °F26.1 °F38 %29.98 in10.0 miWNW (290°)21.9 mph33.4 mphOvercast
4:53 PM48.9 °F27.0 °F43 %30.00 in10.0 miWest (270°)26.5 mph33.4 mphOvercast
5:53 PM48.0 °F26.1 °F42 %30.02 in10.0 miWNW (290°)21.9 mph31.1 mphOvercast
6:53 PM46.9 °F25.0 °F42 %30.04 in10.0 miWNW (290°)18.4 mph27.6 mphOvercast
7:53 PM46.0 °F23.0 °F40 %30.05 in10.0 miWNW (290°)16.1 mph26.5 mphOvercast
8:53 PM44.1 °F26.1 °F49 %30.07 in10.0 miNW (320°)12.7 mphOvercast
9:53 PM39.0 °F26.1 °F60 %30.09 in10.0 miNNW (330°)5.8 mphClear
10:53 PM37.0 °F25.0 °F62 %30.10 in10.0 miNW (310°)6.9 mphClear
11:53 PM39.0 °F24.1 °F55 %30.10 in10.0 miWSW (240°)3.5 mphClear
Hourly data recorded from KYIP, located miles away from Milan, Michigan







STORIES FROM OUR PARTNERS